Wind_Speed
23 23 24 24 24 23 23 22 22 22 22 22 22 21 21 21 20 20 20 21 21 21 21 21 21 21 21 21 21 20 20 21 21 21 21 21 21 21
24 24 24 25 26 25 24 24 24 23 23 23 22 22 22 22 22 22 22 22 22 22 22 23 23 23 23 23 23 22 22 22 22 22 22 22 22 21
25 26 26 26 26 27 26 25 25 24 24 23 23 23 23 24 24 24 23 23 23 23 24 24 24 24 24 24 24 23 23 23 23 23 23 23 23 22
26 26 26 26 26 26 27 27 26 26 25 25 24 24 24 25 25 25 25 25 25 24 25 25 26 25 25 25 25 24 24 23 23 24 24 24 23 23
27 28 28 28 27 27 27 28 27 27 27 27 27 26 25 25 26 26 26 25 25 25 25 25 25 25 26 26 25 25 25 25 24 24 24 24 24 24
27 27 28 28 28 28 28 29 29 28 27 28 28 28 27 27 27 27 27 27 26 26 26 26 26 26 26 26 26 26 26 26 26 25 25 25 25 25
27 28 28 28 29 29 29 29 29 29 29 28 28 29 29 29 29 29 29 28 28 27 27 27 26 27 27 27 27 27 27 26 26 26 26 26 25 26
29 29 29 29 29 30 31 30 31 30 30 29 29 30 30 30 30 30 29 28 28 28 28 28 28 27 27 27 27 28 28 27 26 26 26 26 26 26
30 30 30 30 30 31 32 32 32 32 32 31 31 31 31 31 31 30 29 29 28 28 28 28 29 28 28 27 27 28 28 28 27 27 27 26 26 27
32 31 32 32 32 32 32 33 33 33 33 33 33 33 32 32 32 31 30 30 30 30 30 29 29 29 28 28 28 28 28 28 28 27 26 26 26 26
33 33 33 33 33 33 33 33 33 33 34 34 34 34 33 33 32 31 31 31 30 31 30 30 30 29 29 30 30 30 30 29 29 29 28 27 27 27
34 34 35 35 35 35 34 34 34 34 34 35 34 33 34 33 32 31 31 31 31 31 31 31 30 30 30 30 30 31 31 31 30 29 29 28 28 28
35 35 36 35 36 36 36 35 34 34 34 34 33 33 33 33 32 31 31 31 31 31 31 31 31 31 31 31 31 31 31 31 30 30 29 29 28 29
35 35 36 36 36 35 35 34 34 34 34 34 33 32 32 32 31 31 31 31 31 31 31 30 30 30 30 30 30 30 30 30 30 30 30 30 29 29
35 36 35 35 34 34 34 34 34 34 33 33 32 31 31 32 31 31 31 31 31 30 29 29 29 29 30 30 30 30 30 30 30 30 31 30 30 30
35 35 35 34 34 33 34 34 33 33 32 31 30 30 30 30 31 30 30 30 30 29 29 29 28 29 29 29 30 30 31 30 30 31 31 31 31 31
35 34 33 32 32 32 32 32 32 32 31 31 31 30 29 29 29 29 29 28 29 29 29 29 29 29 29 29 30 31 31 32 32 32 32 32 32 32
33 32 31 31 31 31 31 30 31 31 31 31 31 30 30 29 28 27 28 28 27 27 28 28 28 28 29 29 29 30 31 31 32 33 33 33 32 32
32 30 30 29 29 30 30 30 30 30 30 30 31 31 31 30 30 29 28 27 27 27 28 28 28 29 29 29 29 30 30 31 31 33 33 32 32 32
29 29 28 28 29 29 28 28 28 28 29 30 30 30 30 30 30 30 28 27 27 27 27 27 27 28 28 28 29 29 30 30 30 31 32 33 32 32
28 28 28 28 28 28 27 27 28 28 29 30 30 30 30 30 29 29 28 27 27 27 27 26 26 27 27 28 28 28 28 29 29 30 31 32 32 32
28 28 28 29 28 27 27 27 28 29 29 30 29 29 29 29 29 29 28 27 27 26 26 26 26 26 27 27 27 27 28 28 29 30 31 32 33 32
27 28 28 27 27 27 27 28 28 28 29 29 29 28 28 28 28 28 27 26 26 27 27 26 26 26 26 26 27 27 27 28 29 30 31 31 32 32
Wind_Direction
277 275 272 267 266 266 267 266 265 264 263 261 262 262 264 266 266 267 268 268 268 267 267 268 269 269 268 266 265 266 266 264 263 263 261 260 258 256
277 274 272 269 266 264 266 266 264 264 264 263 265 265 265 267 266 267 267 267 267 267 266 267 269 269 266 266 265 265 264 263 261 260 260 257 256 254
277 273 271 269 268 265 265 265 264 265 265 265 267 266 264 265 266 267 268 267 266 266 266 266 267 268 266 264 264 265 264 263 261 260 258 257 254 253
277 275 272 270 268 267 266 266 265 266 266 266 265 267 267 267 268 269 270 270 269 267 265 266 265 265 264 261 261 262 262 261 261 261 259 256 254 251
278 277 275 269 267 267 266 266 265 265 266 266 266 265 268 269 269 269 270 271 271 268 267 266 264 263 260 259 259 259 258 258 260 260 259 256 253 250
278 278 279 275 269 266 265 264 264 264 265 267 268 268 268 270 269 268 268 268 268 268 269 268 267 265 262 260 259 258 258 258 258 258 258 256 253 250
279 278 278 277 271 268 266 264 264 264 266 268 268 270 269 270 269 268 268 266 266 267 269 269 269 267 264 261 260 259 259 257 257 258 257 255 252 249
279 278 278 276 272 269 266 266 265 266 267 267 268 270 270 271 269 268 268 267 266 266 266 267 268 267 264 260 259 258 259 257 256 257 255 254 252 249
279 277 276 276 273 270 267 266 265 265 266 267 268 269 269 269 269 267 267 266 265 265 266 267 268 267 264 260 257 257 257 256 256 257 255 253 250 249
278 277 277 276 275 272 269 267 267 266 266 268 268 268 267 267 267 266 265 264 264 265 266 267 268 266 262 259 256 256 255 254 254 254 254 251 249 248
279 278 277 276 275 273 271 269 268 268 268 268 269 267 265 265 265 265 265 265 264 264 265 265 265 264 262 261 258 255 254 254 254 253 253 251 250 249
280 279 277 276 274 272 271 270 268 267 267 268 269 267 264 263 263 262 263 264 265 264 264 263 263 262 260 260 259 256 255 256 253 252 252 252 250 249
281 279 277 276 274 272 271 270 268 266 266 267 266 265 263 261 260 260 261 263 264 265 264 263 262 261 260 258 256 255 255 253 251 249 249 249 249 248
281 279 277 276 274 272 271 270 268 266 264 264 263 262 261 260 260 259 260 263 263 263 264 263 262 261 260 257 254 253 253 250 249 248 248 249 249 249
281 279 277 275 274 272 270 269 268 267 264 262 260 260 259 259 258 259 261 262 262 261 261 261 259 259 258 256 253 252 251 249 248 248 248 248 248 248
282 280 277 274 272 271 270 269 267 265 263 260 259 257 256 257 256 258 260 260 260 260 260 260 259 260 260 258 255 252 251 250 249 248 248 249 249 249
281 280 277 275 274 272 270 268 264 262 260 259 257 255 253 255 256 257 257 259 259 258 258 258 258 258 257 258 258 255 252 252 251 249 249 250 250 251
281 280 277 276 274 272 269 265 263 260 257 255 255 254 253 254 254 256 257 258 260 260 258 258 258 257 256 256 257 256 254 252 251 250 249 249 249 249
280 279 277 276 275 272 269 264 261 258 256 254 253 253 253 253 253 255 257 259 259 261 260 258 258 258 257 256 256 255 254 253 251 249 248 248 249 249
281 279 278 278 275 272 269 265 260 257 256 253 251 251 253 252 254 255 256 258 259 259 260 258 257 258 258 257 256 255 254 253 251 248 248 248 249 250
281 280 279 278 276 273 269 264 259 257 255 253 251 252 253 254 255 256 256 258 259 260 260 259 258 258 258 257 258 257 255 253 252 250 249 249 248 248
282 280 280 277 274 271 268 264 260 256 255 252 253 253 254 255 256 256 256 256 257 257 259 259 259 258 258 259 259 258 256 254 252 252 250 249 249 249
282 281 279 277 272 269 268 265 261 256 254 252 252 252 253 253 254 254 253 253 255 256 257 258 259 259 260 262 261 259 257 256 255 254 253 251 250 250
Height
5774 5774 5774 5774 5774 5775 5776 5776 5778 5778 5778 5778 5778 5779 5779 5779 5779 5779 5779 5779 5779 5779 5779 5779 5779 5779 5779 5779 5779 5779 5779 5779 5779 5779 5780 5781 5781 5782
5767 5767 5767 5767 5767 5768 5768 5769 5770 5771 5771 5772 5772 5772 5772 5772 5772 5772 5772 5772 5772 5772 5772 5772 5772 5772 5772 5772 5772 5772 5772 5772 5772 5773 5773 5774 5775 5776
5760 5760 5760 5760 5760 5760 5761 5762 5763 5763 5764 5764 5765 5765 5765 5765 5765 5765 5765 5765 5765 5765 5765 5765 5764 5764 5764 5764 5764 5765 5765 5765 5766 5766 5766 5767 5769 5770
5753 5753 5752 5752 5752 5753 5753 5754 5755 5755 5756 5756 5757 5757 5757 5757 5757 5758 5758 5757 5758 5757 5757 5757 5757 5756 5756 5756 5757 5757 5757 5758 5758 5759 5760 5761 5762 5763
5745 5745 5745 5744 5744 5745 5745 5746 5747 5748 5748 5749 5749 5749 5749 5749 5749 5750 5750 5750 5749 5749 5749 5749 5748 5748 5748 5748 5749 5749 5750 5751 5752 5752 5753 5754 5755 5757
5737 5737 5736 5736 5736 5736 5737 5737 5738 5739 5740 5740 5740 5741 5741 5741 5741 5741 5741 5741 5741 5741 5741 5741 5740 5740 5740 5741 5741 5742 5743 5743 5744 5745 5746 5747 5748 5750
5729 5728 5728 5727 5726 5727 5728 5728 5729 5730 5731 5731 5732 5732 5732 5732 5732 5733 5733 5733 5733 5733 5733 5733 5733 5732 5732 5733 5733 5734 5735 5736 5737 5737 5738 5739 5741 5743
5721 5720 5719 5718 5718 5718 5718 5719 5720 5721 5722 5722 5723 5723 5723 5723 5723 5723 5723 5724 5724 5725 5725 5724 5724 5724 5724 5725 5725 5726 5727 5728 5729 5730 5731 5732 5733 5735
5712 5711 5710 5709 5708 5709 5709 5710 5710 5711 5712 5713 5713 5713 5713 5713 5713 5713 5713 5714 5715 5715 5715 5716 5715 5715 5716 5716 5717 5718 5719 5720 5721 5722 5723 5724 5726 5728
5702 5701 5700 5699 5699 5698 5699 5699 5700 5701 5702 5702 5703 5703 5703 5703 5703 5703 5703 5704 5705 5705 5706 5706 5706 5707 5707 5707 5708 5709 5710 5711 5713 5714 5715 5717 5718 5720
5691 5690 5689 5689 5688 5688 5688 5689 5690 5690 5690 5691 5691 5691 5691 5692 5692 5693 5693 5694 5695 5695 5696 5696 5697 5697 5697 5698 5699 5700 5701 5703 5704 5706 5707 5709 5711 5712
5681 5679 5678 5678 5677 5677 5677 5678 5679 5679 5679 5679 5680 5680 5680 5681 5681 5682 5683 5684 5684 5685 5686 5686 5687 5687 5688 5689 5689 5690 5692 5694 5695 5697 5699 5700 5702 5704
5670 5668 5667 5666 5666 5666 5666 5666 5667 5667 5667 5668 5668 5669 5670 5670 5671 5672 5673 5674 5674 5675 5676 5676 5677 5677 5678 5679 5680 5681 5683 5684 5686 5688 5690 5692 5694 5696
5658 5657 5656 5654 5654 5654 5654 5655 5655 5655 5656 5657 5657 5658 5659 5660 5661 5662 5663 5664 5664 5665 5666 5666 5667 5668 5669 5669 5670 5672 5674 5675 5677 5679 5681 5683 5685 5687
5646 5645 5644 5643 5642 5643 5643 5643 5643 5644 5644 5645 5646 5648 5649 5650 5650 5651 5652 5653 5654 5655 5656 5656 5657 5658 5659 5660 5661 5662 5664 5666 5668 5670 5672 5674 5676 5678
5635 5633 5632 5631 5631 5631 5632 5632 5632 5632 5633 5634 5636 5637 5638 5639 5641 5642 5642 5643 5644 5645 5646 5647 5647 5649 5650 5651 5652 5653 5654 5656 5658 5660 5662 5664 5666 5668
5623 5622 5621 5621 5620 5620 5620 5620 5621 5622 5623 5624 5625 5627 5628 5630 5631 5632 5633 5634 5635 5636 5636 5637 5638 5639 5640 5641 5642 5643 5644 5646 5648 5650 5652 5654 5657 5659
5613 5612 5611 5611 5610 5610 5610 5610 5610 5611 5612 5614 5615 5617 5619 5620 5621 5623 5624 5625 5626 5626 5627 5628 5629 5629 5630 5631 5632 5633 5634 5636 5638 5639 5641 5644 5647 5649
5604 5603 5602 5601 5600 5600 5599 5599 5600 5601 5602 5604 5606 5607 5609 5610 5612 5613 5614 5615 5616 5617 5618 5618 5619 5620 5622 5623 5623 5624 5625 5626 5628 5629 5631 5634 5637 5639
5594 5593 5592 5591 5591 5590 5590 5590 5590 5591 5592 5594 5596 5597 5599 5601 5602 5604 5605 5606 5607 5608 5609 5610 5611 5612 5613 5614 5614 5615 5616 5617 5618 5620 5622 5624 5627 5629
5585 5584 5583 5582 5581 5580 5580 5580 5581 5582 5583 5584 5586 5588 5590 5591 5593 5594 5596 5597 5598 5599 5600 5601 5602 5603 5604 5605 5605 5606 5607 5608 5609 5611 5613 5615 5617 5620
5576 5575 5573 5572 5571 5571 5571 5571 5571 5572 5574 5575 5577 5579 5580 5582 5584 5585 5587 5588 5589 5590 5592 5593 5593 5594 5595 5597 5597 5598 5599 5600 5600 5602 5603 5606 5608 5610
5567 5565 5564 5563 5562 5562 5562 5562 5562 5563 5564 5566 5568 5570 5571 5573 5575 5576 5578 5579 5581 5582 5583 5584 5585 5586 5587 5588 5589 5590 5590 5591 5592 5593 5595 5596 5598 5601